Weather History for Salem, OR

Change the Weather History Date:

Wednesday, March 5, 2014

  Actual Average Record
Temperature  
Mean Temperature 56 °F 45 °F  
Max Temperature 60 °F 55 °F 68 °F (1965)
Min Temperature 52 °F 36 °F 22 °F (1955)
Degree Days  
Heating Degree Days 9 20  
Month to date heating degree days 70 100  
Since 1 July heating degree days 3356 3340  
Cooling Degree Days 0 0  
Month to date cooling degree days 0 0  
Year to date cooling degree days 0 0  
Growing Degree Days 8 (Base 50)    
Moisture  
Dew Point 53 °F    
Average Humidity 85    
Maximum Humidity 93    
Minimum Humidity 77    
Precipitation  
Precipitation 1.46 in 0.14 in 1.46 in (2014)
Month to date precipitation 2.28 0.75  
Year to date precipitation 11.55 11.27  
Sea Level Pressure  
Sea Level Pressure 29.68 in    
Wind  
Wind Speed 13 mph (South)    
Max Wind Speed 28 mph    
Max Gust Speed 37 mph    
Visibility 8 miles    
Events Rain    
T = Trace of Precipitation, MM = Missing Value Source: NWS Daily Summary

Daily Weather History Graph

Daily Weather History Graph

Search for Another Location

Airport:

Trip Planner

Search our weather history database for the weather conditions in past years. The results will help you decide how hot, cold, wet, or windy it might be!

Date:

Astronomy

Mar. 05, 2014 Rise Set
Actual Time 6:42 AM PST 6:05 PM PST
Civil Twilight 6:13 AM PST 6:34 PM PST
Nautical Twilight 5:39 AM PST 7:08 PM PST
Astronomical Twilight 5:05 AM PST 7:42 PM PST
Moon 8:58 AM PST (3/5) 11:33 PM PST (3/5)
Length of Visible Light 12h 21m
Length of Day
11h 22m
Waxing Crescent, 24% of the Moon is Illuminated
Mar 5
Waxing Crescent
Mar 8
First Quarter
Mar 16
Full
Mar 23
Last Quarter
Mar 30
New

Hourly Weather History & Observations

Time (PST) Temp. Dew Point Humidity Pressure Visibility Wind Dir Wind Speed Gust Speed Precip Events Conditions
12:56 AM 53.1 °F 51.1 °F 93% 29.82 in 6.0 mi SSE 8.1 mph - 0.08 in Rain Light Rain
1:56 AM 55.0 °F 52.0 °F 89% 29.81 in 10.0 mi South 12.7 mph - 0.01 in   Overcast
2:56 AM 55.0 °F 51.1 °F 86% 29.77 in 9.0 mi SSE 13.8 mph - 0.02 in Rain Light Rain
3:56 AM 55.0 °F 51.1 °F 86% 29.76 in 10.0 mi South 13.8 mph - 0.11 in Rain Light Rain
4:14 AM 55.9 °F 51.1 °F 84% 29.76 in 10.0 mi South 13.8 mph - 0.01 in Rain Light Rain
4:28 AM 55.0 °F 52.0 °F 89% 29.76 in 10.0 mi South 18.4 mph 26.5 mph 0.02 in Rain Light Rain
4:37 AM 55.0 °F 52.0 °F 89% 29.76 in 7.0 mi South 19.6 mph 26.5 mph 0.04 in Rain Rain
4:47 AM 55.0 °F 52.0 °F 89% 29.76 in 6.0 mi South 13.8 mph - 0.07 in Rain Rain
4:56 AM 55.0 °F 52.0 °F 89% 29.75 in 6.0 mi South 16.1 mph - 0.09 in Rain Light Rain
5:56 AM 55.9 °F 52.0 °F 87% 29.76 in 7.0 mi South 19.6 mph 28.8 mph 0.04 in Rain Light Rain
6:06 AM 55.9 °F 52.0 °F 87% 29.76 in 7.0 mi South 18.4 mph 26.5 mph 0.02 in Rain Light Rain
6:16 AM 55.9 °F 52.0 °F 87% 29.75 in 6.0 mi South 19.6 mph - 0.03 in Rain Rain
6:23 AM 55.0 °F 52.0 °F 89% 29.75 in 6.0 mi South 17.3 mph 25.3 mph 0.04 in Rain Light Rain
6:56 AM 55.9 °F 53.1 °F 90% 29.76 in 5.0 mi South 15.0 mph 25.3 mph 0.13 in Rain Rain
7:56 AM 55.9 °F 53.1 °F 90% 29.77 in 3.0 mi South 15.0 mph - 0.20 in Rain Rain
8:56 AM 55.9 °F 53.1 °F 90% 29.77 in 4.0 mi South 12.7 mph 21.9 mph 0.10 in Rain Rain
9:56 AM 57.0 °F 53.1 °F 87% 29.77 in 5.0 mi South 13.8 mph - 0.13 in Rain Light Rain
10:56 AM 57.0 °F 54.0 °F 89% 29.75 in 10.0 mi SSE 9.2 mph - 0.02 in Rain Light Rain
11:56 AM 57.9 °F 54.0 °F 87% 29.72 in 10.0 mi South 12.7 mph - 0.01 in   Overcast
12:03 PM 57.9 °F 54.0 °F 87% 29.71 in 8.0 mi SSE 15.0 mph - 0.00 in Rain Light Rain
12:10 PM 57.0 °F 54.0 °F 89% 29.70 in 4.0 mi South 12.7 mph - 0.02 in Rain Rain
12:56 PM 59.0 °F 55.0 °F 87% 29.66 in 10.0 mi South 12.7 mph - 0.02 in   Overcast
1:03 PM 59.0 °F 55.0 °F 87% 29.65 in 9.0 mi SSE 9.2 mph - 0.01 in Rain Light Rain
1:14 PM 60.1 °F 57.0 °F 90% 29.65 in 10.0 mi SSE 9.2 mph - 0.01 in   Overcast
1:56 PM 60.1 °F 55.0 °F 83% 29.60 in 10.0 mi SSE 5.8 mph - 0.01 in   Overcast
2:56 PM 59.0 °F 55.0 °F 87% 29.57 in 10.0 mi SSE 6.9 mph - 0.05 in Rain Light Rain
3:56 PM 59.0 °F 55.0 °F 87% 29.54 in 7.0 mi South 12.7 mph - 0.06 in Rain Light Rain
4:56 PM 57.9 °F 55.9 °F 93% 29.50 in 4.0 mi SSE 12.7 mph - 0.10 in Rain Rain
5:38 PM 59.0 °F 55.9 °F 90% 29.53 in 3.0 mi SSW 13.8 mph - 0.13 in Rain Rain
5:47 PM 59.0 °F 55.0 °F 87% 29.52 in 7.0 mi SSW 13.8 mph 24.2 mph 0.16 in Rain Light Rain
5:56 PM 59.0 °F 55.0 °F 87% 29.52 in 10.0 mi SSW 16.1 mph 23.0 mph 0.16 in Rain Light Rain
6:56 PM 59.0 °F 52.0 °F 78% 29.55 in 9.0 mi SW 12.7 mph 21.9 mph 0.00 in Rain Light Rain
7:56 PM 57.0 °F 51.1 °F 81% 29.57 in 10.0 mi SW 9.2 mph - 0.02 in   Overcast
8:56 PM 55.9 °F 51.1 °F 84% 29.59 in 3.0 mi SSW 12.7 mph 25.3 mph 0.08 in Rain Light Rain
9:17 PM 55.0 °F 52.0 °F 89% 29.59 in 7.0 mi South 12.7 mph - 0.01 in Rain Light Rain
9:24 PM 55.9 °F 51.1 °F 84% 29.58 in 10.0 mi South 18.4 mph 28.8 mph 0.01 in   Overcast
9:56 PM 55.9 °F 50.0 °F 80% 29.60 in 10.0 mi South 16.1 mph 27.6 mph 0.01 in   Mostly Cloudy
10:56 PM 55.0 °F 48.0 °F 77% 29.63 in 10.0 mi South 12.7 mph - N/A   Partly Cloudy
11:56 PM 54.0 °F 45.0 °F 72% 29.65 in 10.0 mi South 16.1 mph - 0.01 in   Overcast